Location: Bonac
(42.8765°N, 0.9753°E)
Time: 06:08:32
(UTC+00:00)

SL-4 R/B - Pass Details

Date: 12 January 2026
Orbit: 384 x 519 km, 51.6° (Epoch: 10 February)

Event Time Altitude Azimuth Distance (km) Brightness Sun altitude
Rises 18:41:32 0° 298° (WNW) 2,634 6.3 -21.1°
Reaches altitude 10° 18:43:53 10° 290° (WNW) 1,730 5.4 -21.5°
Maximum altitude 18:47:30 36° 223° (SW) 803 3.2 -22.1°
Enters shadow 18:49:12 24° 174° (S) 1,067 3.5 -22.5°
